Change the Weather History Date:

Thursday, November 11, 2010

  Actual Average Record
Temperature  
Mean Temperature 36 °F 38 °F  
Max Temperature 42 °F 51 °F 70 °F (1931)
Min Temperature 28 °F 25 °F 4 °F (1950)
Degree Days  
Heating Degree Days 29 27  
Month to date heating degree days 276  
Since 1 July heating degree days 920  
Cooling Degree Days 0 0  
Month to date cooling degree days 0  
Year to date cooling degree days 541  
Moisture  
Dew Point 25 °F    
Average Humidity 73    
Maximum Humidity 93    
Minimum Humidity 41    
Precipitation  
Precipitation 0.01 in 0.04 in 0.59 in (1912)
Month to date precipitation 0.54  
Year to date precipitation 12.90  
Sea Level Pressure  
Sea Level Pressure 30.19 in    
Wind  
Wind Speed 3 mph (West)    
Max Wind Speed 20 mph    
Max Gust Speed 26 mph    
Visibility 9 miles    
Events Snow    
T = Trace of Precipitation, MM = Missing Value Source: NWS Daily Summary

Daily Weather History Graph

Daily Weather History Graph

Search for Another Location

Airport or City:

Trip Planner

Search our weather history database for the weather conditions in past years. The results will help you decide how hot, cold, wet, or windy it might be!

Date:

Astronomy

Nov. 11, 2010 Rise Set
Actual Time 6:50 AM MST 4:58 PM MST
Civil Twilight 6:21 AM MST 5:27 PM MST
Nautical Twilight 5:49 AM MST 5:59 PM MST
Astronomical Twilight 5:17 AM MST 6:31 PM MST
Moon 11:51 AM MST (11/11) 10:07 PM MST (11/11)
Length of Visible Light 11h 05m
Length of Day
10h 08m
Waxing Crescent, 32% of the Moon is Illuminated
Nov 11
Waxing Crescent
Nov 13
First Quarter
Nov 21
Full
Nov 28
Last Quarter
Dec 5
New

Hourly Weather History & Observations

Time (MST) Temp. Windchill Dew Point Humidity Pressure Visibility Wind Dir Wind Speed Gust Speed Precip Events Conditions
12:53 AM 32.0 °F 28.7 °F 28.0 °F 85% 30.01 in 10.0 mi SSW 3.5 mph - N/A   Overcast
1:53 AM 32.0 °F - 28.0 °F 85% 30.01 in 10.0 mi Calm Calm - N/A   Overcast
2:02 AM 32.0 °F - 28.4 °F 87% 30.01 in 10.0 mi Calm Calm - N/A   Overcast
2:53 AM 32.0 °F - 28.9 °F 88% 30.02 in 10.0 mi Calm Calm - 0.00 in   Overcast
3:44 AM 32.0 °F - 30.2 °F 93% 30.04 in 2.0 mi Calm Calm - 0.00 in Snow Light Snow
3:53 AM 32.0 °F 27.5 °F 30.0 °F 92% 30.04 in 1.2 mi WSW 4.6 mph - 0.00 in Snow Light Snow
4:07 AM 32.0 °F - 30.2 °F 93% 30.04 in 2.5 mi Calm Calm - 0.00 in Snow Light Snow
4:15 AM 32.0 °F - 30.2 °F 93% 30.05 in 4.0 mi Calm Calm - 0.01 in Snow Light Snow
4:45 AM 32.0 °F - 30.2 °F 93% 30.06 in 5.0 mi Calm Calm - 0.01 in   Overcast
4:53 AM 32.0 °F - 30.0 °F 92% 30.07 in 6.0 mi Calm Calm - 0.01 in   Overcast
5:53 AM 32.0 °F - 30.0 °F 92% 30.10 in 7.0 mi Calm Calm - N/A   Overcast
6:04 AM 32.0 °F - 30.2 °F 93% 30.09 in 8.0 mi Calm Calm - N/A   Overcast
6:19 AM 32.0 °F - 30.2 °F 93% 30.09 in 10.0 mi Calm Calm - N/A   Overcast
6:53 AM 32.0 °F 28.7 °F 28.9 °F 88% 30.13 in 10.0 mi SSE 3.5 mph - N/A   Overcast
7:53 AM 33.1 °F - 28.0 °F 82% 30.15 in 10.0 mi Calm Calm - N/A   Overcast
8:53 AM 33.1 °F - 28.9 °F 85% 30.20 in 10.0 mi Calm Calm - N/A   Overcast
9:53 AM 35.1 °F 30.1 °F 26.1 °F 70% 30.21 in 10.0 mi West 5.8 mph - N/A   Overcast
10:53 AM 36.0 °F 30.3 °F 25.0 °F 64% 30.23 in 10.0 mi West 6.9 mph - N/A   Overcast
11:53 AM 37.9 °F 32.1 °F 25.0 °F 60% 30.23 in 10.0 mi WSW 8.1 mph - N/A   Overcast
12:53 PM 39.0 °F 30.6 °F 21.0 °F 49% 30.22 in 10.0 mi WNW 15.0 mph - N/A   Overcast
1:53 PM 42.1 °F 35.7 °F 19.9 °F 41% 30.22 in 10.0 mi WNW 11.5 mph 16.1 mph N/A   Partly Cloudy
2:53 PM 41.0 °F 33.9 °F 19.0 °F 41% 30.23 in 10.0 mi WNW 12.7 mph - N/A   Clear
3:53 PM 39.0 °F 30.3 °F 19.9 °F 46% 30.27 in 10.0 mi WNW 16.1 mph - N/A   Clear
4:53 PM 36.0 °F 25.3 °F 19.0 °F 50% 30.32 in 10.0 mi WNW 19.6 mph 26.5 mph N/A   Partly Cloudy
5:53 PM 34.0 °F 25.0 °F 18.0 °F 52% 30.35 in 10.0 mi WNW 12.7 mph - N/A   Scattered Clouds
6:53 PM 34.0 °F 28.0 °F 18.0 °F 52% 30.39 in 10.0 mi NW 6.9 mph - N/A   Mostly Cloudy
7:53 PM 34.0 °F 29.8 °F 19.9 °F 56% 30.40 in 10.0 mi WNW 4.6 mph - N/A   Overcast
8:53 PM 33.1 °F 28.7 °F 21.0 °F 61% 30.43 in 10.0 mi West 4.6 mph - N/A   Overcast
9:53 PM 32.0 °F 27.5 °F 19.0 °F 59% 30.44 in 10.0 mi West 4.6 mph - N/A   Overcast
10:53 PM 30.0 °F - 19.0 °F 64% 30.45 in 10.0 mi Calm Calm - N/A   Clear
11:53 PM 28.0 °F - 18.0 °F 66% 30.45 in 10.0 mi Calm Calm - N/A   Clear